Find Starlink 4002

NORAD ID: 52612 Int'l Des: 2022-052 Owner: SPXS Country: US Constellation: starlink operational
LEOCIRCULAR

現在のビュー

3D地球を読み込み中...

About Starlink 4002

Starlink 4002 (NORAD 52612) is a starlink constellation satellite (v1.5) launched May 14, 2022 by SPXS of US. It operates in LEO, CIRCULAR orbit with a mass of 297.00 kg.

Starlink 4002について

説明を読み込み中...

次回通過

Passes for default location (London). Set your location on the main map for personalized predictions.

高度履歴

Loading altitude history...

軌道要素

1 52612U 22052Q 26169.45847356 .00000000 00000-0 18089-4 0 9993
2 52612 53.1586 186.6483 0001216 84.7748 275.3382 15.08835121226071
Epoch: Jun 18, 2026 • Age: 11 hours

現在のステータス

高度 540.6 km
速度 7.59 km/s
衛星直下点 0.26°N, 54.4°W
打ち上げ日 May 14, 2022
運用期間 4 years
タイプ internet

技術仕様

分類 Payload
質量 297.00 kg
乾燥質量 275.00 kg
総質量 297.00 kg
長さ 0.20 m
直径 2.80 m
スパン 9.00 m
形状 Box + pan
製造者 SPXS
バスタイプ Starlink
フェーズステータス In Orbit
所有者/国 SPXS/US

Most Searched